Weather History for Fort Meade, MD

Change the Weather History Date:

Sunday, December 25, 2011

  Actual Average (KBWI) Record (KBWI)
Temperature  
Mean Temperature 34 °F 34 °F  
Max Temperature 46 °F 43 °F 72 °F (1964)
Min Temperature 23 °F 26 °F 0 °F (1983)
Degree Days  
Heating Degree Days 30 31  
Month to date heating degree days 691  
Since 1 July heating degree days 1595  
Cooling Degree Days 0 0  
Month to date cooling degree days 0  
Year to date cooling degree days 1164  
Moisture  
Dew Point 28 °F    
Average Humidity 84    
Maximum Humidity 100    
Minimum Humidity 57    
Precipitation  
Precipitation 0.00 in 0.10 in 1.41 in (1945)
Month to date precipitation 2.79  
Year to date precipitation 41.30  
Snow  
Snow 0.00 in 0.10 in 9.30 in (1909)
Month to date snowfall 2.2  
Since 1 July snowfall 2.6  
Snow Depth -    
Sea Level Pressure  
Sea Level Pressure 30.26 in    
Wind  
Wind Speed 1 mph (SSW)    
Max Wind Speed 8 mph    
Max Gust Speed -    
Visibility 10 miles    
Events      
T = Trace of Precipitation, MM = Missing Value Source: NWS Daily Summary

Daily Weather History Graph

Daily Weather History Graph

Search for Another Location

Airport:

Trip Planner

Search our weather history database for the weather conditions in past years. The results will help you decide how hot, cold, wet, or windy it might be!

Date:

Astronomy

Dec. 25, 2011 Rise Set
Actual Time 7:24 AM EST 4:49 PM EST
Civil Twilight 6:54 AM EST 5:19 PM EST
Nautical Twilight 6:20 AM EST 5:53 PM EST
Astronomical Twilight 5:48 AM EST 6:26 PM EST
Moon 8:01 AM EST (12/25) 6:07 PM EST (12/25)
Length of Visible Light 10h 25m
Length of Day
9h 25m
New Moon, 1% of the Moon is Illuminated
Dec 25
New Moon
Jan 1
First Quarter
Jan 9
Full
Jan 16
Last Quarter
Jan 23
New

Hourly Weather History & Observations

Time (EST) Temp. Windchill Dew Point Humidity Pressure Visibility Wind Dir Wind Speed Gust Speed Precip Events Conditions
12:30 AM 26.6 °F - 24.8 °F 93% 30.41 in 10.0 mi Calm Calm - N/A   Clear
12:48 AM 26.6 °F - 24.8 °F 93% 30.42 in 10.0 mi Calm Calm - N/A   Clear
1:09 AM 26.6 °F - 24.8 °F 93% 30.42 in 10.0 mi Calm Calm - N/A   Clear
1:27 AM 26.6 °F - 24.8 °F 93% 30.41 in 10.0 mi Calm Calm - N/A   Clear
1:48 AM 26.6 °F - 24.8 °F 93% 30.40 in 10.0 mi Calm Calm - N/A   Clear
2:06 AM 26.6 °F - 24.8 °F 93% 30.40 in 10.0 mi Calm Calm - N/A   Clear
2:27 AM 26.6 °F - 24.8 °F 93% 30.40 in 10.0 mi Calm Calm - N/A   Clear
3:24 AM 26.6 °F - 24.8 °F 93% 30.39 in 10.0 mi Calm Calm - N/A   Clear
3:42 AM 26.6 °F - 24.8 °F 93% 30.38 in 10.0 mi Calm Calm - N/A   Clear
4:03 AM 24.8 °F - 23.0 °F 93% 30.37 in 10.0 mi Calm Calm - N/A   Clear
4:21 AM 24.8 °F - 23.0 °F 93% 30.37 in 10.0 mi Calm Calm - N/A   Clear
4:42 AM 24.8 °F - 23.0 °F 93% 30.37 in 10.0 mi Calm Calm - N/A   Clear
5:00 AM 24.8 °F - 23.0 °F 93% 30.37 in 10.0 mi Calm Calm - N/A   Clear
5:21 AM 24.8 °F - 23.0 °F 93% 30.36 in 10.0 mi Calm Calm - N/A   Clear
5:39 AM 24.8 °F - 23.0 °F 93% 30.36 in 10.0 mi Calm Calm - N/A   Clear
5:57 AM 24.8 °F - 23.0 °F 93% 30.36 in 10.0 mi Calm Calm - N/A   Clear
6:18 AM 24.8 °F - 23.0 °F 93% 30.36 in 10.0 mi Calm Calm - N/A   Clear
6:36 AM 24.8 °F - 23.0 °F 93% 30.35 in 10.0 mi Calm Calm - N/A   Clear
6:57 AM 23.0 °F - 23.0 °F 100% 30.35 in 10.0 mi Calm Calm - N/A   Clear
7:15 AM 24.8 °F - 23.0 °F 93% 30.35 in 10.0 mi Calm Calm - N/A   Clear
7:36 AM 24.8 °F - 23.0 °F 93% 30.35 in 10.0 mi Calm Calm - N/A   Clear
7:54 AM 24.8 °F - 23.0 °F 93% 30.35 in 10.0 mi Calm Calm - N/A   Clear
8:15 AM 26.6 °F - 23.0 °F 86% 30.34 in 10.0 mi Calm Calm - N/A   Clear
8:33 AM 26.6 °F - 26.6 °F 100% 30.34 in 10.0 mi Calm Calm - N/A   Clear
8:51 AM 28.4 °F - 26.6 °F 93% 30.34 in 10.0 mi Calm Calm - N/A   Clear
9:12 AM 30.2 °F - 30.2 °F 100% 30.33 in 10.0 mi Calm Calm - N/A   Clear
9:30 AM 32.0 °F 28.7 °F 32.0 °F 100% 30.32 in 10.0 mi South 3.5 mph - N/A   Clear
9:51 AM 33.8 °F 30.8 °F 32.0 °F 93% 30.32 in 10.0 mi South 3.5 mph - N/A   Clear
10:09 AM 35.6 °F 31.7 °F 32.0 °F 87% 30.31 in 10.0 mi SSW 4.6 mph - N/A   Clear
10:30 AM 39.2 °F 33.6 °F 32.0 °F 75% 30.29 in 10.0 mi SSW 8.1 mph - N/A   Clear
10:48 AM 37.4 °F 34.9 °F 32.0 °F 81% 30.29 in 10.0 mi SW 3.5 mph - N/A   Clear
11:06 AM 41.0 °F 37.1 °F 32.0 °F 70% 30.27 in 10.0 mi SSW 5.8 mph - N/A   Clear
11:27 AM 41.0 °F 36.4 °F 32.0 °F 70% 30.26 in 10.0 mi SSW 6.9 mph - N/A   Clear
11:45 AM 41.0 °F 37.1 °F 32.0 °F 70% 30.24 in 10.0 mi WSW 5.8 mph - N/A   Clear
12:45 PM 42.8 °F 40.1 °F 32.0 °F 66% 30.21 in 10.0 mi SSW 4.6 mph - N/A   Clear
1:03 PM 42.8 °F 41.1 °F 32.0 °F 66% 30.19 in 10.0 mi SSW 3.5 mph - N/A   Clear
1:21 PM 44.6 °F 41.4 °F 32.0 °F 61% 30.19 in 10.0 mi SSW 5.8 mph - N/A   Clear
2:21 PM 44.6 °F 41.4 °F 32.0 °F 61% 30.16 in 10.0 mi SSW 5.8 mph - N/A   Clear
2:39 PM 46.4 °F 44.3 °F 32.0 °F 57% 30.15 in 10.0 mi SSW 4.6 mph - N/A   Clear
3:00 PM 46.4 °F 43.5 °F 32.0 °F 57% 30.13 in 10.0 mi South 5.8 mph - N/A   Clear
3:18 PM 46.4 °F 42.9 °F 32.0 °F 57% 30.13 in 10.0 mi SSW 6.9 mph - N/A   Clear
3:36 PM 44.6 °F 42.2 °F 32.0 °F 61% 30.12 in 10.0 mi SW 4.6 mph - N/A   Clear
3:57 PM 44.6 °F 41.4 °F 32.0 °F 61% 30.12 in 10.0 mi SSW 5.8 mph - N/A   Clear
4:15 PM 42.8 °F 41.1 °F 32.0 °F 66% 30.11 in 10.0 mi SSW 3.5 mph - N/A   Clear
4:36 PM 42.8 °F 41.1 °F 32.0 °F 66% 30.10 in 10.0 mi South 3.5 mph - N/A   Clear
4:54 PM 39.2 °F - 32.0 °F 75% 30.09 in 10.0 mi Calm Calm - N/A   Clear
5:15 PM 37.4 °F - 30.2 °F 75% 30.08 in 10.0 mi Calm Calm - N/A   Clear
5:33 PM 35.6 °F - 30.2 °F 81% 30.08 in 10.0 mi Calm Calm - N/A   Clear
5:54 PM 33.8 °F - 30.2 °F 87% 30.06 in 10.0 mi Calm Calm - N/A   Clear
6:12 PM 33.8 °F - 30.2 °F 87% 30.05 in 10.0 mi Calm Calm - N/A   Clear
6:30 PM 32.0 °F - 30.2 °F 93% 30.06 in 10.0 mi Calm Calm - N/A   Clear
6:51 PM 32.0 °F - 30.2 °F 93% 30.06 in 10.0 mi Calm Calm - N/A   Clear
7:09 PM 32.0 °F - 30.2 °F 93% 30.05 in 10.0 mi Calm Calm - N/A   Clear
7:30 PM 32.0 °F - 30.2 °F 93% 30.05 in 10.0 mi Calm Calm - N/A   Clear
7:48 PM 32.0 °F - 30.2 °F 93% 30.04 in 10.0 mi Calm Calm - N/A   Clear
8:09 PM 30.2 °F - 28.4 °F 93% 30.04 in 10.0 mi Calm Calm - N/A   Clear
8:27 PM 30.2 °F - 28.4 °F 93% 30.03 in 10.0 mi Calm Calm - N/A   Clear
8:45 PM 30.2 °F - 28.4 °F 93% 30.03 in 10.0 mi Calm Calm - N/A   Clear
9:06 PM 30.2 °F - 28.4 °F 93% 30.03 in 10.0 mi Calm Calm - N/A   Clear
10:03 PM 30.2 °F 24.3 °F 30.2 °F 100% 30.03 in 10.0 mi WSW 5.8 mph - N/A   Clear
10:24 PM 30.2 °F 24.3 °F 30.2 °F 100% 30.02 in 10.0 mi WSW 5.8 mph - N/A   Clear
10:42 PM 32.0 °F 25.6 °F 30.2 °F 93% 30.02 in 10.0 mi WSW 6.9 mph - N/A   Clear
11:21 PM 32.0 °F 25.6 °F 30.2 °F 93% 30.03 in 10.0 mi WSW 6.9 mph - N/A   Clear
11:39 PM 32.0 °F 26.4 °F 30.2 °F 93% 30.03 in 10.0 mi SW 5.8 mph - N/A   Clear